Location: Slemon Park
(46.4340°N, 63.8219°W)
Time: 08:53:47
(UTC-04:00)

ISS - All Passes

Search period start: 10 February 2016 00:00
Search period end: 20 February 2016 00:00
Orbit: 399 x 408 km, 51.6° (Epoch: 10 February)

Date Brightness Start Highest point End Pass type
(mag) Time Alt. Az. Time Alt. Az. Time Alt. Az.
10 Feb - 14:55:44 10° SSE 14:56:46 11° SE 14:57:48 10° ESE daylight
10 Feb - 16:29:27 10° SW 16:32:41 69° SSE 16:35:56 10° ENE daylight
10 Feb - 18:06:15 10° W 18:09:19 36° N 18:12:22 10° ENE visible
10 Feb - 19:43:14 10° WNW 19:46:15 34° N 19:49:16 10° ENE visible
10 Feb - 21:19:41 10° WNW 21:22:56 83° SSW 21:26:11 10° ESE visible
10 Feb - 22:57:11 10° W 22:58:57 14° SW 23:00:44 10° SSW night (unlit)
11 Feb - 15:37:02 10° SW 15:40:05 39° SE 15:43:10 10° ENE daylight
11 Feb - 17:13:22 10° W 17:16:32 46° NNW 17:19:41 10° ENE daylight
11 Feb - 18:50:29 10° WNW 18:53:26 31° N 18:56:23 10° ENE visible
11 Feb - 20:27:02 10° WNW 20:30:16 63° NNE 20:33:28 10° ESE visible
11 Feb - 22:03:49 10° W 22:06:30 24° SW 22:09:10 10° SSE night (unlit)
12 Feb - 14:44:54 10° SSW 14:47:33 23° SE 14:50:12 10° E daylight
12 Feb - 16:20:32 10° WSW 16:23:46 65° NNW 16:27:00 10° ENE daylight
12 Feb - 17:57:37 10° WNW 18:00:35 31° N 18:03:32 10° ENE daylight
12 Feb - 19:34:21 10° WNW 19:37:30 45° NNE 19:40:38 10° E visible
12 Feb - 21:10:52 10° WNW 21:13:57 41° SW 21:17:01 10° SE visible
13 Feb - 13:53:23 10° SSE 13:55:03 13° SE 13:56:44 10° ESE daylight
13 Feb - 15:27:47 10° WSW 15:31:02 80° SSE 15:34:18 10° ENE daylight
13 Feb - 17:04:41 10° WNW 17:07:43 34° N 17:10:44 10° ENE daylight
13 Feb - 18:41:37 10° WNW 18:44:40 35° N 18:47:42 10° E visible
13 Feb - 20:18:04 10° WNW 20:21:17 72° SSW 20:24:31 10° SE visible
13 Feb - 21:56:00 10° WSW 21:57:13 12° SW 21:58:26 10° SSW night (unlit)
14 Feb - 14:35:13 10° SW 14:38:21 47° SE 14:41:30 10° ENE daylight
14 Feb - 16:11:43 10° W 16:14:50 42° NNW 16:17:58 10° ENE daylight
14 Feb - 17:48:48 10° WNW 17:51:46 31° N 17:54:44 10° ENE daylight
14 Feb - 19:25:18 10° WNW 19:28:33 72° NNE 19:31:47 10° ESE visible
14 Feb - 21:02:14 10° W 21:04:43 20° SW 21:07:12 10° S visible
15 Feb - 13:42:54 10° SSW 13:45:43 27° SE 13:48:32 10° E daylight
15 Feb - 15:18:46 10° WSW 15:22:00 58° NNW 15:25:13 10° ENE daylight
15 Feb - 16:55:53 10° WNW 16:58:50 31° N 17:01:47 10° ENE daylight
15 Feb - 18:32:33 10° WNW 18:35:43 49° NNE 18:38:53 10° E visible
15 Feb - 20:09:07 10° WNW 20:12:07 35° SW 20:15:05 10° SSE visible
16 Feb - 12:51:03 10° S 12:53:07 16° SE 12:55:11 10° E daylight
16 Feb - 14:25:55 10° WSW 14:29:11 88° NNW 14:32:27 10° ENE daylight
16 Feb - 16:02:53 10° WNW 16:05:53 33° N 16:08:53 10° ENE daylight
16 Feb - 17:39:45 10° WNW 17:42:49 38° NNE 17:45:54 10° E daylight
16 Feb - 19:16:11 10° WNW 19:19:24 61° SSW 19:22:36 10° SE visible
17 Feb - 13:33:11 10° SW 13:36:23 55° SSE 13:39:35 10° ENE daylight
17 Feb - 15:09:50 10° W 15:12:56 39° NNW 15:16:02 10° ENE daylight
17 Feb - 16:46:52 10° WNW 16:49:52 32° N 16:52:51 10° ENE daylight
17 Feb - 18:23:20 10° WNW 18:26:36 82° NNE 18:29:50 10° ESE visible
17 Feb - 20:00:27 10° W 20:02:42 17° SW 20:04:55 10° S visible
18 Feb - 12:40:43 10° SSW 12:43:39 32° SE 12:46:35 10° ENE daylight
18 Feb - 14:16:48 10° W 14:19:59 52° NNW 14:23:12 10° ENE daylight
18 Feb - 15:53:54 10° WNW 15:56:52 31° N 15:59:48 10° ENE daylight
18 Feb - 17:30:30 10° WNW 17:33:43 54° NNE 17:36:54 10° E daylight
18 Feb - 19:07:08 10° W 19:10:02 30° SW 19:12:54 10° SSE visible
19 Feb - 11:48:36 10° S 11:50:58 19° SE 11:53:19 10° E daylight
19 Feb - 13:23:49 10° WSW 13:27:04 78° NNW 13:30:20 10° ENE daylight
19 Feb - 15:00:50 10° WNW 15:03:50 32° N 15:06:48 10° ENE daylight
19 Feb - 16:37:38 10° WNW 16:40:45 40° NNE 16:43:50 10° E daylight
19 Feb - 18:14:06 10° WNW 18:17:16 52° SSW 18:20:26 10° SE visible
